sat.trackr.live / text

‹ back to catalog

STARLINK-35149

NORAD 65512 · 2025-198W

PAYLOAD ACTIVE UNKNOWN

§ Identity

Operator
Country
US
Launch date
2025-09-05
Launch site
AFETR
Launch vehicle
Mass (kg)
RCS (m²)

Purposes: comms

External: N2YO · Heavens-Above · Gunter

§ Orbital elements

Epoch: 2026-09-20T22:25:27.680160Z

Period
93.85 min
Inclination
53.1532°
Eccentricity
0.0003131
Mean motion
15.34389971 rev/d
Perigee alt
460.6 km
Apogee alt
464.9 km
Semi-major
6,840.9 km
B*
4.0409e-4
RAAN
79.7950°
Arg perigee
87.0708°
Mean anomaly
273.0653°
Rev number
5,857

§ Raw data

STARLINK-351491 65512U 25198W   26263.93434815  .00013297  00000+0  40409-3 0  99912 65512  53.1532  79.7950 0003131  87.0708 273.0653 15.34389971 58576

JSON: /api/v1/satellites/65512 · /tle

For live sub-satellite position, see the globe view (requires WebGL).

§ Visibility from observer

Set your observer location to see the next 7 days of passes ≥ 10°. The values pass through the URL so the page stays shareable.

No JS? Fill the form by hand. The geolocation button needs JavaScript.